Location: Camaret
(48.2753°N, 4.5961°W)
Time: 04:11:54
(UTC+00:00)

Cosmos 1980 Rocket - Pass Details

Date: 29 October 2020
Orbit: 831 x 848 km, 71.0° (Epoch: 01 December)

Event Time Altitude Azimuth Distance (km) Brightness Sun altitude
Rises 20:57:09 0° 243° (WSW) 3,380 5.7 -38.7°
Reaches altitude 10° 20:59:56 10° 255° (WSW) 2,447 5.0 -39.1°
Enters shadow 21:03:07 24° 286° (WNW) 1,660 4.2 -39.6°
